Wetterdaten: Mittwoch, 17.02.2021
Datum Zeit Temp. A. Feuchte A. Luftdruck Regen Wind Richtung Richtung Sonnenschein UV Solar Windben
17.02.2021 00:00 6,3 C 90 % 1010,4 hPa 0,5 mm 4,8 km/h (1 Bft) W-SW 248 0 min 0 UV-I 0 W/m 14,5 km/h (3 Bft)
17.02.2021 00:10 6,4 C 90 % 1010,5 hPa 0,5 mm 4,8 km/h (1 Bft) SW 225 0 min 0 UV-I 0 W/m 11,3 km/h (2 Bft)
17.02.2021 00:20 6,5 C 90 % 1010,7 hPa 0,3 mm 4,8 km/h (1 Bft) SW 225 0 min 0 UV-I 0 W/m 16,1 km/h (3 Bft)
17.02.2021 00:30 6,5 C 91 % 1010,8 hPa 0,0 mm 4,8 km/h (1 Bft) SW 225 0 min 0 UV-I 0 W/m 14,5 km/h (3 Bft)
17.02.2021 00:40 6,4 C 91 % 1010,8 hPa 0,3 mm 6,4 km/h (2 Bft) W-SW 248 0 min 0 UV-I 0 W/m 14,5 km/h (3 Bft)
17.02.2021 00:50 6,4 C 91 % 1010,9 hPa 0,0 mm 4,8 km/h (1 Bft) W-SW 248 0 min 0 UV-I 0 W/m 11,3 km/h (2 Bft)
17.02.2021 01:00 6,4 C 91 % 1011,1 hPa 0,0 mm 4,8 km/h (1 Bft) SW 225 0 min 0 UV-I 0 W/m 11,3 km/h (2 Bft)
17.02.2021 01:10 6,3 C 92 % 1011,1 hPa 0,0 mm 3,2 km/h (1 Bft) SW 225 0 min 0 UV-I 0 W/m 11,3 km/h (2 Bft)
17.02.2021 01:20 6,2 C 92 % 1011,3 hPa 0,0 mm 4,8 km/h (1 Bft) W-SW 248 0 min 0 UV-I 0 W/m 14,5 km/h (3 Bft)
17.02.2021 01:30 6,2 C 92 % 1011,3 hPa 0,0 mm 4,8 km/h (1 Bft) SW 225 0 min 0 UV-I 0 W/m 14,5 km/h (3 Bft)
17.02.2021 01:40 6,1 C 92 % 1011,5 hPa 0,0 mm 4,8 km/h (1 Bft) W-SW 248 0 min 0 UV-I 0 W/m 14,5 km/h (3 Bft)
17.02.2021 01:50 6,1 C 92 % 1011,6 hPa 0,0 mm 4,8 km/h (1 Bft) SW 225 0 min 0 UV-I 0 W/m 14,5 km/h (3 Bft)
17.02.2021 02:00 6,1 C 92 % 1011,7 hPa 0,0 mm 3,2 km/h (1 Bft) SW 225 0 min 0 UV-I 0 W/m 9,7 km/h (2 Bft)
17.02.2021 02:10 5,9 C 92 % 1011,8 hPa 0,0 mm 1,6 km/h (1 Bft) SW 225 0 min 0 UV-I 0 W/m 8,0 km/h (2 Bft)
17.02.2021 02:20 5,8 C 93 % 1012,0 hPa 0,0 mm 1,6 km/h (1 Bft) SW 225 0 min 0 UV-I 0 W/m 8,0 km/h (2 Bft)
17.02.2021 02:30 5,7 C 92 % 1012,2 hPa 0,0 mm 0,0 km/h (0 Bft) N 0 0 min 0 UV-I 0 W/m 6,4 km/h (2 Bft)
17.02.2021 02:40 5,6 C 93 % 1012,3 hPa 0,0 mm 0,0 km/h (0 Bft) N 0 0 min 0 UV-I 0 W/m 4,8 km/h (1 Bft)
17.02.2021 02:50 5,6 C 93 % 1012,3 hPa 0,0 mm 0,0 km/h (0 Bft) N 0 0 min 0 UV-I 0 W/m 6,4 km/h (2 Bft)
17.02.2021 03:00 5,5 C 93 % 1012,4 hPa 0,0 mm 3,2 km/h (1 Bft) W-SW 248 0 min 0 UV-I 0 W/m 11,3 km/h (2 Bft)
17.02.2021 03:10 5,6 C 93 % 1012,4 hPa 0,0 mm 4,8 km/h (1 Bft) W-SW 248 0 min 0 UV-I 0 W/m 14,5 km/h (3 Bft)
17.02.2021 03:20 5,7 C 93 % 1012,5 hPa 0,0 mm 3,2 km/h (1 Bft) W-SW 248 0 min 0 UV-I 0 W/m 16,1 km/h (3 Bft)
17.02.2021 03:30 5,8 C 93 % 1012,5 hPa 0,0 mm 6,4 km/h (2 Bft) SW 225 0 min 0 UV-I 0 W/m 16,1 km/h (3 Bft)
17.02.2021 03:40 5,9 C 94 % 1012,6 hPa 0,0 mm 6,4 km/h (2 Bft) W-SW 248 0 min 0 UV-I 0 W/m 14,5 km/h (3 Bft)
17.02.2021 03:50 5,9 C 94 % 1012,7 hPa 0,0 mm 4,8 km/h (1 Bft) W-SW 248 0 min 0 UV-I 0 W/m 11,3 km/h (2 Bft)
17.02.2021 04:00 5,8 C 93 % 1012,7 hPa 0,0 mm 1,6 km/h (1 Bft) W 270 0 min 0 UV-I 0 W/m 8,0 km/h (2 Bft)
17.02.2021 04:10 5,7 C 93 % 1012,7 hPa 0,0 mm 1,6 km/h (1 Bft) SW 225 0 min 0 UV-I 0 W/m 6,4 km/h (2 Bft)
17.02.2021 04:20 5,7 C 93 % 1012,7 hPa 0,0 mm 3,2 km/h (1 Bft) S-SW 203 0 min 0 UV-I 0 W/m 9,7 km/h (2 Bft)
17.02.2021 04:30 5,6 C 94 % 1012,7 hPa 0,3 mm 3,2 km/h (1 Bft) SW 225 0 min 0 UV-I 0 W/m 9,7 km/h (2 Bft)
17.02.2021 04:40 5,6 C 94 % 1012,8 hPa 0,0 mm 3,2 km/h (1 Bft) S-SW 203 0 min 0 UV-I 0 W/m 16,1 km/h (3 Bft)
17.02.2021 04:50 5,6 C 94 % 1013,0 hPa 0,0 mm 4,8 km/h (1 Bft) W-SW 248 0 min 0 UV-I 0 W/m 11,3 km/h (2 Bft)
17.02.2021 05:00 5,7 C 94 % 1013,1 hPa 0,0 mm 4,8 km/h (1 Bft) W-SW 248 0 min 0 UV-I 0 W/m 17,7 km/h (3 Bft)
17.02.2021 05:10 5,7 C 94 % 1013,4 hPa 0,0 mm 4,8 km/h (1 Bft) W-SW 248 0 min 0 UV-I 0 W/m 17,7 km/h (3 Bft)
17.02.2021 05:20 5,7 C 94 % 1013,4 hPa 0,0 mm 4,8 km/h (1 Bft) W-SW 248 0 min 0 UV-I 0 W/m 16,1 km/h (3 Bft)
17.02.2021 05:30 5,7 C 94 % 1013,4 hPa 0,0 mm 3,2 km/h (1 Bft) W-SW 248 0 min 0 UV-I 0 W/m 9,7 km/h (2 Bft)
17.02.2021 05:40 5,7 C 94 % 1013,5 hPa 0,0 mm 1,6 km/h (1 Bft) S-SW 203 0 min 0 UV-I 0 W/m 8,0 km/h (2 Bft)
17.02.2021 05:50 5,7 C 94 % 1013,5 hPa 0,0 mm 1,6 km/h (1 Bft) W-SW 248 0 min 0 UV-I 0 W/m 9,7 km/h (2 Bft)
17.02.2021 06:00 5,7 C 94 % 1013,5 hPa 0,0 mm 1,6 km/h (1 Bft) W-SW 248 0 min 0 UV-I 0 W/m 8,0 km/h (2 Bft)
17.02.2021 06:10 5,7 C 93 % 1013,5 hPa 0,0 mm 0,0 km/h (0 Bft) N 0 0 min 0 UV-I 0 W/m 6,4 km/h (2 Bft)
17.02.2021 06:20 5,7 C 93 % 1013,7 hPa 0,0 mm 0,0 km/h (0 Bft) N 0 0 min 0 UV-I 0 W/m 0,0 km/h (0 Bft)
17.02.2021 06:30 5,7 C 93 % 1013,7 hPa 0,0 mm 1,6 km/h (1 Bft) W-SW 248 0 min 0 UV-I 0 W/m 11,3 km/h (2 Bft)
17.02.2021 06:40 5,7 C 93 % 1013,6 hPa 0,0 mm 3,2 km/h (1 Bft) SW 225 0 min 0 UV-I 0 W/m 9,7 km/h (2 Bft)
17.02.2021 06:50 5,7 C 93 % 1013,5 hPa 0,0 mm 4,8 km/h (1 Bft) W-SW 248 0 min 0 UV-I 0 W/m 11,3 km/h (2 Bft)
17.02.2021 07:00 5,7 C 93 % 1013,6 hPa 0,0 mm 3,2 km/h (1 Bft) W-SW 248 0 min 0 UV-I 0 W/m 14,5 km/h (3 Bft)
17.02.2021 07:10 5,8 C 93 % 1013,9 hPa 0,0 mm 6,4 km/h (2 Bft) W-SW 248 0 min 0 UV-I 0 W/m 16,1 km/h (3 Bft)
17.02.2021 07:20 5,9 C 93 % 1014,0 hPa 0,0 mm 4,8 km/h (1 Bft) W-SW 248 0 min 0 UV-I 0 W/m 11,3 km/h (2 Bft)
17.02.2021 07:30 5,9 C 93 % 1014,2 hPa 0,0 mm 4,8 km/h (1 Bft) W-SW 248 0 min 0 UV-I 0 W/m 16,1 km/h (3 Bft)
17.02.2021 07:40 6,0 C 93 % 1014,2 hPa 0,0 mm 4,8 km/h (1 Bft) W-SW 248 0 min 0 UV-I 0 W/m 11,3 km/h (2 Bft)
17.02.2021 07:50 5,9 C 93 % 1014,4 hPa 0,0 mm 4,8 km/h (1 Bft) W-SW 248 0 min 0 UV-I 0 W/m 14,5 km/h (3 Bft)
17.02.2021 08:00 6,0 C 93 % 1014,7 hPa 0,0 mm 4,8 km/h (1 Bft) SW 225 0 min 0 UV-I 0 W/m 16,1 km/h (3 Bft)
17.02.2021 08:10 6,1 C 93 % 1014,9 hPa 0,0 mm 4,8 km/h (1 Bft) W-SW 248 0 min 0 UV-I 2 W/m 14,5 km/h (3 Bft)
17.02.2021 08:20 6,2 C 93 % 1015,0 hPa 0,0 mm 4,8 km/h (1 Bft) W-SW 248 0 min 0 UV-I 9 W/m 16,1 km/h (3 Bft)
17.02.2021 08:30 6,2 C 93 % 1015,1 hPa 0,0 mm 3,2 km/h (1 Bft) W-SW 248 0 min 0 UV-I 16 W/m 11,3 km/h (2 Bft)
17.02.2021 08:40 6,2 C 93 % 1015,2 hPa 0,0 mm 4,8 km/h (1 Bft) SW 225 0 min 0 UV-I 26 W/m 14,5 km/h (3 Bft)
17.02.2021 08:50 6,3 C 93 % 1015,4 hPa 0,0 mm 4,8 km/h (1 Bft) W-SW 248 0 min 0 UV-I 32 W/m 14,5 km/h (3 Bft)
17.02.2021 09:00 6,3 C 93 % 1015,5 hPa 0,0 mm 4,8 km/h (1 Bft) W-SW 248 0 min 0 UV-I 30 W/m 12,9 km/h (3 Bft)
17.02.2021 09:10 6,4 C 93 % 1015,6 hPa 0,0 mm 3,2 km/h (1 Bft) W 270 0 min 0 UV-I 37 W/m 11,3 km/h (2 Bft)
17.02.2021 09:20 6,4 C 93 % 1015,7 hPa 0,0 mm 4,8 km/h (1 Bft) W-SW 248 0 min 0 UV-I 46 W/m 12,9 km/h (3 Bft)
17.02.2021 09:30 6,5 C 92 % 1015,8 hPa 0,0 mm 4,8 km/h (1 Bft) W-SW 248 0 min 0 UV-I 54 W/m 11,3 km/h (2 Bft)
17.02.2021 09:40 6,6 C 92 % 1015,9 hPa 0,0 mm 1,6 km/h (1 Bft) W-SW 248 0 min 0 UV-I 61 W/m 9,7 km/h (2 Bft)
17.02.2021 09:50 6,6 C 92 % 1015,9 hPa 0,0 mm 3,2 km/h (1 Bft) SW 225 0 min 0 UV-I 60 W/m 16,1 km/h (3 Bft)
17.02.2021 10:00 6,7 C 92 % 1016,0 hPa 0,0 mm 4,8 km/h (1 Bft) SW 225 0 min 0 UV-I 62 W/m 16,1 km/h (3 Bft)
17.02.2021 10:10 6,7 C 91 % 1016,0 hPa 0,0 mm 4,8 km/h (1 Bft) W-SW 248 0 min 0 UV-I 80 W/m 11,3 km/h (2 Bft)
17.02.2021 10:20 6,8 C 91 % 1016,0 hPa 0,0 mm 4,8 km/h (1 Bft) W-SW 248 0 min 1 UV-I 115 W/m 14,5 km/h (3 Bft)
17.02.2021 10:30 7,1 C 91 % 1016,0 hPa 0,0 mm 3,2 km/h (1 Bft) SW 225 0 min 1 UV-I 162 W/m 12,9 km/h (3 Bft)
17.02.2021 10:40 7,6 C 90 % 1016,2 hPa 0,0 mm 3,2 km/h (1 Bft) SW 225 0 min 1 UV-I 191 W/m 14,5 km/h (3 Bft)
17.02.2021 10:50 7,9 C 89 % 1016,3 hPa 0,0 mm 4,8 km/h (1 Bft) W-SW 248 0 min 1 UV-I 139 W/m 17,7 km/h (3 Bft)
17.02.2021 11:00 8,0 C 88 % 1016,4 hPa 0,0 mm 4,8 km/h (1 Bft) W-SW 248 0 min 1 UV-I 137 W/m 14,5 km/h (3 Bft)
17.02.2021 11:10 8,1 C 88 % 1016,4 hPa 0,0 mm 4,8 km/h (1 Bft) W-SW 248 0 min 1 UV-I 150 W/m 11,3 km/h (2 Bft)
17.02.2021 11:20 8,2 C 87 % 1016,5 hPa 0,0 mm 4,8 km/h (1 Bft) SW 225 0 min 1 UV-I 114 W/m 11,3 km/h (2 Bft)
17.02.2021 11:30 8,3 C 87 % 1016,5 hPa 0,0 mm 6,4 km/h (2 Bft) W-SW 248 0 min 1 UV-I 152 W/m 17,7 km/h (3 Bft)
17.02.2021 11:40 8,4 C 86 % 1016,6 hPa 0,0 mm 6,4 km/h (2 Bft) W-SW 248 0 min 1 UV-I 169 W/m 19,3 km/h (3 Bft)
17.02.2021 11:50 8,5 C 86 % 1016,6 hPa 0,0 mm 6,4 km/h (2 Bft) W-SW 248 0 min 1 UV-I 147 W/m 16,1 km/h (3 Bft)
17.02.2021 12:00 8,6 C 86 % 1016,6 hPa 0,0 mm 4,8 km/h (1 Bft) W-SW 248 0 min 1 UV-I 197 W/m 16,1 km/h (3 Bft)
17.02.2021 12:10 8,8 C 85 % 1016,6 hPa 0,0 mm 3,2 km/h (1 Bft) W-SW 248 0 min 1 UV-I 224 W/m 9,7 km/h (2 Bft)
17.02.2021 12:20 9,1 C 84 % 1016,6 hPa 0,0 mm 6,4 km/h (2 Bft) W-SW 248 10 min 1 UV-I 275 W/m 16,1 km/h (3 Bft)
17.02.2021 12:30 9,3 C 84 % 1016,6 hPa 0,0 mm 6,4 km/h (2 Bft) W-SW 248 0 min 1 UV-I 206 W/m 16,1 km/h (3 Bft)
17.02.2021 12:40 9,3 C 83 % 1016,5 hPa 0,0 mm 6,4 km/h (2 Bft) W-SW 248 0 min 1 UV-I 197 W/m 17,7 km/h (3 Bft)
17.02.2021 12:50 9,4 C 83 % 1016,7 hPa 0,0 mm 6,4 km/h (2 Bft) W-SW 248 0 min 1 UV-I 117 W/m 19,3 km/h (3 Bft)
17.02.2021 13:00 9,3 C 82 % 1016,8 hPa 0,0 mm 8,0 km/h (2 Bft) W-SW 248 0 min 1 UV-I 133 W/m 20,9 km/h (4 Bft)
17.02.2021 13:10 9,3 C 83 % 1016,8 hPa 0,0 mm 9,7 km/h (2 Bft) W-SW 248 0 min 1 UV-I 169 W/m 24,1 km/h (4 Bft)
17.02.2021 13:20 9,3 C 83 % 1016,7 hPa 0,0 mm 4,8 km/h (1 Bft) SW 225 0 min 1 UV-I 163 W/m 11,3 km/h (2 Bft)
17.02.2021 13:30 9,4 C 84 % 1016,8 hPa 0,0 mm 1,6 km/h (1 Bft) W-SW 248 0 min 1 UV-I 184 W/m 6,4 km/h (2 Bft)
17.02.2021 13:40 9,6 C 83 % 1016,7 hPa 0,0 mm 4,8 km/h (1 Bft) W-SW 248 10 min 1 UV-I 250 W/m 14,5 km/h (3 Bft)
17.02.2021 13:50 10,1 C 81 % 1016,6 hPa 0,0 mm 3,2 km/h (1 Bft) S-SW 203 10 min 1 UV-I 295 W/m 8,0 km/h (2 Bft)
17.02.2021 14:00 10,3 C 80 % 1016,7 hPa 0,0 mm 3,2 km/h (1 Bft) SW 225 0 min 1 UV-I 186 W/m 11,3 km/h (2 Bft)
17.02.2021 14:10 10,2 C 80 % 1016,7 hPa 0,0 mm 1,6 km/h (1 Bft) W-SW 248 0 min 1 UV-I 170 W/m 8,0 km/h (2 Bft)
17.02.2021 14:20 10,2 C 80 % 1016,6 hPa 0,0 mm 0,0 km/h (0 Bft) N 0 0 min 1 UV-I 101 W/m 6,4 km/h (2 Bft)
17.02.2021 14:30 10,2 C 80 % 1016,7 hPa 0,0 mm 3,2 km/h (1 Bft) W 270 0 min 1 UV-I 163 W/m 11,3 km/h (2 Bft)
17.02.2021 14:40 10,2 C 79 % 1016,6 hPa 0,0 mm 1,6 km/h (1 Bft) W 270 10 min 1 UV-I 213 W/m 8,0 km/h (2 Bft)
17.02.2021 14:50 10,4 C 78 % 1016,7 hPa 0,0 mm 3,2 km/h (1 Bft) W-SW 248 0 min 1 UV-I 123 W/m 11,3 km/h (2 Bft)
17.02.2021 15:00 10,4 C 77 % 1016,6 hPa 0,0 mm 1,6 km/h (1 Bft) W-SW 248 0 min 0 UV-I 80 W/m 9,7 km/h (2 Bft)
17.02.2021 15:10 10,3 C 77 % 1016,6 hPa 0,0 mm 4,8 km/h (1 Bft) W-SW 248 0 min 1 UV-I 131 W/m 14,5 km/h (3 Bft)
17.02.2021 15:20 10,3 C 77 % 1016,6 hPa 0,0 mm 3,2 km/h (1 Bft) W-SW 248 0 min 1 UV-I 103 W/m 16,1 km/h (3 Bft)
17.02.2021 15:30 10,3 C 78 % 1016,6 hPa 0,0 mm 1,6 km/h (1 Bft) SW 225 0 min 1 UV-I 99 W/m 8,0 km/h (2 Bft)
17.02.2021 15:40 10,3 C 78 % 1016,5 hPa 0,0 mm 1,6 km/h (1 Bft) S-SW 203 0 min 0 UV-I 91 W/m 8,0 km/h (2 Bft)
17.02.2021 15:50 10,3 C 79 % 1016,6 hPa 0,0 mm 1,6 km/h (1 Bft) SW 225 0 min 0 UV-I 69 W/m 6,4 km/h (2 Bft)
17.02.2021 16:00 10,2 C 79 % 1016,7 hPa 0,0 mm 1,6 km/h (1 Bft) S-SW 203 0 min 0 UV-I 67 W/m 6,4 km/h (2 Bft)
17.02.2021 16:10 10,2 C 79 % 1016,7 hPa 0,0 mm 1,6 km/h (1 Bft) S-SW 203 0 min 0 UV-I 76 W/m 4,8 km/h (1 Bft)
17.02.2021 16:20 10,2 C 79 % 1016,7 hPa 0,0 mm 1,6 km/h (1 Bft) S-SW 203 0 min 0 UV-I 47 W/m 8,0 km/h (2 Bft)
17.02.2021 16:30 10,1 C 79 % 1016,6 hPa 0,0 mm 1,6 km/h (1 Bft) SW 225 0 min 0 UV-I 41 W/m 6,4 km/h (2 Bft)
17.02.2021 16:40 10,1 C 78 % 1016,7 hPa 0,0 mm 0,0 km/h (0 Bft) N 0 0 min 0 UV-I 41 W/m 1,6 km/h (1 Bft)
17.02.2021 16:50 9,9 C 79 % 1016,7 hPa 0,0 mm 0,0 km/h (0 Bft) N 0 0 min 0 UV-I 35 W/m 4,8 km/h (1 Bft)
17.02.2021 17:00 9,8 C 79 % 1016,6 hPa 0,0 mm 0,0 km/h (0 Bft) N 0 0 min 0 UV-I 30 W/m 4,8 km/h (1 Bft)
17.02.2021 17:10 9,8 C 79 % 1016,7 hPa 0,0 mm 0,0 km/h (0 Bft) N 0 0 min 0 UV-I 24 W/m 4,8 km/h (1 Bft)
17.02.2021 17:20 9,7 C 79 % 1016,8 hPa 0,0 mm 1,6 km/h (1 Bft) S-SW 203 0 min 0 UV-I 20 W/m 8,0 km/h (2 Bft)
17.02.2021 17:30 9,6 C 79 % 1016,7 hPa 0,0 mm 3,2 km/h (1 Bft) S-SW 203 10 min 0 UV-I 12 W/m 12,9 km/h (3 Bft)
17.02.2021 17:40 9,4 C 79 % 1016,8 hPa 0,0 mm 0,0 km/h (0 Bft) N 0 0 min 0 UV-I 3 W/m 3,2 km/h (1 Bft)
17.02.2021 17:50 9,3 C 79 % 1016,8 hPa 0,0 mm 0,0 km/h (0 Bft) N 0 0 min 0 UV-I 0 W/m 4,8 km/h (1 Bft)
17.02.2021 18:00 9,1 C 79 % 1016,9 hPa 0,0 mm 0,0 km/h (0 Bft) N 0 0 min 0 UV-I 0 W/m 3,2 km/h (1 Bft)
17.02.2021 18:10 8,9 C 79 % 1017,0 hPa 0,0 mm 0,0 km/h (0 Bft) N 0 0 min 0 UV-I 0 W/m 4,8 km/h (1 Bft)
17.02.2021 18:20 8,8 C 80 % 1017,0 hPa 0,0 mm 1,6 km/h (1 Bft) S-SW 203 0 min 0 UV-I 0 W/m 8,0 km/h (2 Bft)
17.02.2021 18:30 8,7 C 80 % 1017,1 hPa 0,0 mm 0,0 km/h (0 Bft) N 0 0 min 0 UV-I 0 W/m 0,0 km/h (0 Bft)
17.02.2021 18:40 8,7 C 80 % 1017,2 hPa 0,0 mm 0,0 km/h (0 Bft) N 0 0 min 0 UV-I 0 W/m 0,0 km/h (0 Bft)
17.02.2021 18:50 8,6 C 80 % 1017,3 hPa 0,0 mm 0,0 km/h (0 Bft) N 0 0 min 0 UV-I 0 W/m 1,6 km/h (1 Bft)
17.02.2021 19:00 8,5 C 81 % 1017,4 hPa 0,0 mm 0,0 km/h (0 Bft) N 0 0 min 0 UV-I 0 W/m 6,4 km/h (2 Bft)
17.02.2021 19:10 8,4 C 81 % 1017,4 hPa 0,0 mm 0,0 km/h (0 Bft) N 0 0 min 0 UV-I 0 W/m 1,6 km/h (1 Bft)
17.02.2021 19:20 8,4 C 81 % 1017,4 hPa 0,0 mm 0,0 km/h (0 Bft) N 0 0 min 0 UV-I 0 W/m 0,0 km/h (0 Bft)
17.02.2021 19:30 8,4 C 81 % 1017,5 hPa 0,0 mm 0,0 km/h (0 Bft) N 0 0 min 0 UV-I 0 W/m 0,0 km/h (0 Bft)
17.02.2021 19:40 8,3 C 81 % 1017,5 hPa 0,0 mm 0,0 km/h (0 Bft) N 0 0 min 0 UV-I 0 W/m 0,0 km/h (0 Bft)
17.02.2021 19:50 8,2 C 81 % 1017,5 hPa 0,0 mm 0,0 km/h (0 Bft) N 0 0 min 0 UV-I 0 W/m 0,0 km/h (0 Bft)
17.02.2021 20:00 8,2 C 82 % 1017,5 hPa 0,0 mm 0,0 km/h (0 Bft) N 0 0 min 0 UV-I 0 W/m 0,0 km/h (0 Bft)
17.02.2021 20:10 8,2 C 82 % 1017,5 hPa 0,0 mm 0,0 km/h (0 Bft) N 0 0 min 0 UV-I 0 W/m 0,0 km/h (0 Bft)
17.02.2021 20:20 8,1 C 82 % 1017,4 hPa 0,0 mm 0,0 km/h (0 Bft) N 0 0 min 0 UV-I 0 W/m 0,0 km/h (0 Bft)
17.02.2021 20:30 8,1 C 82 % 1017,5 hPa 0,0 mm 0,0 km/h (0 Bft) N 0 0 min 0 UV-I 0 W/m 0,0 km/h (0 Bft)
17.02.2021 20:40 8,0 C 83 % 1017,5 hPa 0,0 mm 0,0 km/h (0 Bft) N 0 0 min 0 UV-I 0 W/m 4,8 km/h (1 Bft)
17.02.2021 20:50 8,0 C 83 % 1017,4 hPa 0,0 mm 0,0 km/h (0 Bft) N 0 0 min 0 UV-I 0 W/m 1,6 km/h (1 Bft)
17.02.2021 21:00 8,0 C 83 % 1017,5 hPa 0,0 mm 1,6 km/h (1 Bft) S 180 0 min 0 UV-I 0 W/m 6,4 km/h (2 Bft)
17.02.2021 21:10 8,1 C 83 % 1017,4 hPa 0,0 mm 0,0 km/h (0 Bft) N 0 0 min 0 UV-I 0 W/m 6,4 km/h (2 Bft)
17.02.2021 21:20 8,1 C 83 % 1017,4 hPa 0,0 mm 1,6 km/h (1 Bft) W-SW 248 0 min 0 UV-I 0 W/m 8,0 km/h (2 Bft)
17.02.2021 21:30 8,2 C 83 % 1017,4 hPa 0,0 mm 1,6 km/h (1 Bft) S-SW 203 0 min 0 UV-I 0 W/m 11,3 km/h (2 Bft)
17.02.2021 21:40 8,2 C 83 % 1017,5 hPa 0,0 mm 1,6 km/h (1 Bft) SW 225 0 min 0 UV-I 0 W/m 6,4 km/h (2 Bft)
17.02.2021 21:50 8,2 C 83 % 1017,5 hPa 0,0 mm 0,0 km/h (0 Bft) N 0 0 min 0 UV-I 0 W/m 3,2 km/h (1 Bft)
17.02.2021 22:00 8,2 C 83 % 1017,6 hPa 0,0 mm 0,0 km/h (0 Bft) N 0 0 min 0 UV-I 0 W/m 6,4 km/h (2 Bft)
17.02.2021 22:10 8,2 C 83 % 1017,5 hPa 0,0 mm 0,0 km/h (0 Bft) N 0 0 min 0 UV-I 0 W/m 6,4 km/h (2 Bft)
17.02.2021 22:20 8,2 C 82 % 1017,5 hPa 0,0 mm 0,0 km/h (0 Bft) N 0 0 min 0 UV-I 0 W/m 0,0 km/h (0 Bft)
17.02.2021 22:30 8,1 C 82 % 1017,6 hPa 0,0 mm 0,0 km/h (0 Bft) N 0 0 min 0 UV-I 0 W/m 6,4 km/h (2 Bft)
17.02.2021 22:40 8,1 C 82 % 1017,6 hPa 0,0 mm 1,6 km/h (1 Bft) S-SW 203 0 min 0 UV-I 0 W/m 6,4 km/h (2 Bft)
17.02.2021 22:50 8,1 C 82 % 1017,7 hPa 0,0 mm 1,6 km/h (1 Bft) S-SW 203 0 min 0 UV-I 0 W/m 6,4 km/h (2 Bft)
17.02.2021 23:00 8,1 C 82 % 1017,7 hPa 0,0 mm 0,0 km/h (0 Bft) N 0 0 min 0 UV-I 0 W/m 4,8 km/h (1 Bft)
17.02.2021 23:10 8,1 C 82 % 1017,6 hPa 0,0 mm 1,6 km/h (1 Bft) SW 225 0 min 0 UV-I 0 W/m 9,7 km/h (2 Bft)
17.02.2021 23:20 8,2 C 82 % 1017,6 hPa 0,0 mm 1,6 km/h (1 Bft) S-SW 203 0 min 0 UV-I 0 W/m 9,7 km/h (2 Bft)
17.02.2021 23:30 8,2 C 81 % 1017,5 hPa 0,0 mm 1,6 km/h (1 Bft) S-SW 203 0 min 0 UV-I 0 W/m 6,4 km/h (2 Bft)
17.02.2021 23:40 8,2 C 81 % 1017,6 hPa 0,0 mm 0,0 km/h (0 Bft) N 0 0 min 0 UV-I 0 W/m 6,4 km/h (2 Bft)
17.02.2021 23:50 8,3 C 81 % 1017,5 hPa 0,0 mm 0,0 km/h (0 Bft) N 0 0 min 0 UV-I 0 W/m 6,4 km/h (2 Bft)
_ Min-Zeit 03:00 15:00 00:00 - 02:30 - - - - - 06:20
Minimum _ 5,5 C 77 % 1010,4 hPa - 0,0 km/h (0 Bft) - - - - - 0,0 km/h (0 Bft)
_ Max-Zeit 14:50 03:40 22:50 00:00 13:10 - - 12:20 12:20 13:50 13:10
Maximum _ 10,4 C 94 % 1017,7 hPa 0,5 mm 9,7 km/h
W-SW (2 Bft)
- - 10 min 1 UV-I 295 W/m 24,1 km/h
W-SW (4 Bft)
Durchschnitt _ 7,7 C 87 % 1015,3 hPa #1,8 mm 2,8 km/h (1 Bft) W-SW - #50 min. 1 UV-I 109 W/m 9,8 km/h (2 Bft)